Zurück zum Katalog

COSMOS 1275 DEB

AktivPO
NORAD 39954·DEBRIS·🇷🇺 Russia

Gestartet Jun 4, 1981 von Plesetsk Cosmodrome

Loading…

Nächste Überflüge (nächste 24 Stunden)

TLE

AktuellSource: Space-Track

Epoche: Sep 13, 2026, 18:39 UTC

1 39954U 81053NQ  26256.77753941  .00004554  00000-0  13258-2 0  9990
2 39954  82.8904  16.0033 0037025 342.8013  17.1924 14.43674047635956

Verfolge COSMOS 1275 DEB in Echtzeit mit AllMySat

Download on the App Store